This is the latest recevied weather packets stored in our database for station/object K7KRJ-10. If no packets are shown the sender has not sent any weather packets the latest 10 day(s).
| Time | Temp. | Humidity | Pressure | Rain* | Wind** | Luminosity | Snow |
|---|---|---|---|---|---|---|---|
| 1777840173 | 33.89° C | 18% | 1007.9 hPa | 0 mm | - | 1050 W/m² | - |
| 1777839272 | 32.78° C | 19% | 1007.8 hPa | 0 mm | - | 1036 W/m² | - |
| 1777838368 | 32.78° C | 20% | 1008.2 hPa | 0 mm | - | 1049 W/m² | - |
| 1777837465 | 33.33° C | 19% | 1008.5 hPa | 0 mm | - | 1061 W/m² | - |
| 1777836563 | 32.22° C | 19% | 1008.7 hPa | 0 mm | - | 1061 W/m² | - |
| 1777835659 | 32.78° C | 19% | 1009 hPa | 0 mm | - | 1062 W/m² | - |
| 1777834755 | 32.78° C | 18% | 1009.2 hPa | 0 mm | - | 1054 W/m² | - |
| 1777833854 | 32.22° C | 18% | 1009.1 hPa | 0 mm | - | 1046 W/m² | - |
| 1777832949 | 31.67° C | 20% | 1009.5 hPa | 0 mm | - | 1032 W/m² | - |
| 1777832048 | 31.11° C | 21% | 1009.7 hPa | 0 mm | - | 1012 W/m² | - |
| 1777831144 | 31.11° C | 21% | 1009.7 hPa | 0 mm | - | 1003 W/m² | - |
| 1777830242 | 30.56° C | 22% | 1010.1 hPa | 0 mm | - | 932 W/m² | - |
| 1777829341 | 30° C | 22% | 1009.9 hPa | 0 mm | - | 513 W/m² | - |
| 1777828438 | 28.89° C | 25% | 1010.3 hPa | 0 mm | - | 538 W/m² | - |
| 1777827534 | 28.89° C | 25% | 1010.2 hPa | 0 mm | - | 474 W/m² | - |
| 1777826631 | 28.89° C | 26% | 1010.4 hPa | 0 mm | - | 586 W/m² | - |
| 1777825727 | 28.33° C | 26% | 1010.2 hPa | 0 mm | - | 396 W/m² | - |
| 1777824824 | 28.33° C | 26% | 1010.4 hPa | 0 mm | - | 403 W/m² | - |
| 1777823925 | 27.78° C | 27% | 1010.5 hPa | 0 mm | - | 304 W/m² | - |
| 1777823023 | 27.78° C | 27% | 1010.3 hPa | 0 mm | - | 291 W/m² | - |
| 1777822122 | 27.78° C | 27% | 1010.2 hPa | 0 mm | - | 254 W/m² | - |
| 1777821220 | 27.22° C | 27% | 1010 hPa | 0 mm | - | 282 W/m² | - |
| 1777820315 | 26.67° C | 28% | 1010.1 hPa | 0 mm | - | 247 W/m² | - |
| 1777819414 | 26.67° C | 28% | 1010.1 hPa | 0 mm | - | 171 W/m² | - |
| 1777818510 | 26.11° C | 28% | 1009.8 hPa | 0 mm | - | 144 W/m² | - |
* Rain latest hour (hover to see other rain measurements)
** Current wind speed in m/s (hover to see current wind gust speed)